﻿_id,日時,平均風速(m/s),平均風向,最大瞬間風速(m/s),最大風速時風向,気温(℃),湿度(%),10分間移動積算雨量(mm),1時間移動積算雨量(mm),日雨量(mm),累計雨量(mm),日射(日積算)(MJ/m2),日照(日積算)(min),現地気圧(hPa),海面気圧(hPa)
1,2023-01-02T00:00:00,0.4,南南西,1.3,南,2.2,77.5,0,0,0,0,11.28,386,1011.5,1026.1
2,2023-01-02T00:01:00,0.3,南南西,1.3,南,2,77.5,0,0,0,0,0,0,1011.5,1026.1
3,2023-01-02T00:02:00,0.3,南南西,1.3,南,2.1,77.5,0,0,0,0,0,0,1011.5,1026.1
4,2023-01-02T00:03:00,0.2,静穏,1,西北西,2.3,78.5,0,0,0,0,0,0,1011.5,1026.1
5,2023-01-02T00:04:00,0.3,南南西,1.4,東,2.7,79.1,0,0,0,0,0,0,1011.5,1026.1
6,2023-01-02T00:05:00,0.3,南南西,1.4,東,3,79,0,0,0,0,0,0,1011.5,1026.1
7,2023-01-02T00:06:00,0.4,南南西,1.4,東,3.1,77.5,0,0,0,0,0,0,1011.5,1026.1
8,2023-01-02T00:07:00,0.4,南西,1.4,東,3.2,76,0,0,0,0,0,0,1011.5,1026.1
9,2023-01-02T00:08:00,0.4,南西,1.4,東,3.2,74.7,0,0,0,0,0,0,1011.5,1026.1
10,2023-01-02T00:09:00,0.4,南西,1.4,東,3.1,73.7,0,0,0,0,0,0,1011.4,1026
11,2023-01-02T00:10:00,0.4,南西,1.4,東,3.2,73.2,0,0,0,0,0,0,1011.5,1026.1
12,2023-01-02T00:11:00,0.4,南西,1.4,東,2.8,72.5,0,0,0,0,0,0,1011.4,1026
13,2023-01-02T00:12:00,0.4,南西,1.4,東,2.9,73.1,0,0,0,0,0,0,1011.4,1026
14,2023-01-02T00:13:00,0.4,南西,1.4,東,3.1,73.9,0,0,0,0,0,0,1011.5,1026.1
15,2023-01-02T00:14:00,0.4,西南西,1.4,南南西,2.8,73.3,0,0,0,0,0,0,1011.5,1026.1
16,2023-01-02T00:15:00,0.4,西南西,1.4,南南西,2.6,73.2,0,0,0,0,0,0,1011.5,1026.1
17,2023-01-02T00:16:00,0.5,西南西,1.4,南南西,2.4,73.3,0,0,0,0,0,0,1011.4,1026
18,2023-01-02T00:17:00,0.5,西,1.4,南南西,2.2,74.4,0,0,0,0,0,0,1011.4,1026
19,2023-01-02T00:18:00,0.5,西,1.3,南,2,74.7,0,0,0,0,0,0,1011.4,1026
20,2023-01-02T00:19:00,0.5,西,1,西,1.9,75.6,0,0,0,0,0,0,1011.5,1026.1
21,2023-01-02T00:20:00,0.5,西,1,西,1.7,76.5,0,0,0,0,0,0,1011.5,1026.2
22,2023-01-02T00:21:00,0.5,西,1,西,2.1,78.1,0,0,0,0,0,0,1011.5,1026.1
23,2023-01-02T00:22:00,0.5,西,1,西,2.2,79.5,0,0,0,0,0,0,1011.4,1026
24,2023-01-02T00:23:00,0.5,西,1,西,2.3,79.6,0,0,0,0,0,0,1011.4,1026
25,2023-01-02T00:24:00,0.4,西,1,西,2.4,79.7,0,0,0,0,0,0,1011.3,1025.9
26,2023-01-02T00:25:00,0.4,西,1,西,2.5,79.8,0,0,0,0,0,0,1011.4,1026
27,2023-01-02T00:26:00,0.5,西,1.4,西,2.4,79.2,0,0,0,0,0,0,1011.4,1026
28,2023-01-02T00:27:00,0.5,西,1.4,西,2.3,78.3,0,0,0,0,0,0,1011.4,1026
29,2023-01-02T00:28:00,0.5,西,1.4,西,2.5,78.9,0,0,0,0,0,0,1011.3,1025.9
30,2023-01-02T00:29:00,0.4,西,1.4,西,2.7,79.4,0,0,0,0,0,0,1011.3,1025.9
31,2023-01-02T00:30:00,0.4,西,1.4,西,2.7,79.3,0,0,0,0,0,0,1011.3,1025.9
32,2023-01-02T00:31:00,0.5,西北西,1.4,西,2.7,78.3,0,0,0,0,0,0,1011.4,1026
33,2023-01-02T00:32:00,0.6,西北西,1.4,西,2.8,78.4,0,0,0,0,0,0,1011.4,1026
34,2023-01-02T00:33:00,0.6,西北西,1.4,西,2.9,78.4,0,0,0,0,0,0,1011.4,1026
35,2023-01-02T00:34:00,0.7,西北西,1.4,西,3,78.3,0,0,0,0,0,0,1011.3,1025.9
36,2023-01-02T00:35:00,0.7,西北西,1.4,西,3,78.1,0,0,0,0,0,0,1011.3,1025.9
37,2023-01-02T00:36:00,0.6,西北西,1.3,西北西,3,77.6,0,0,0,0,0,0,1011.3,1025.9
38,2023-01-02T00:37:00,0.5,西北西,1.3,西北西,2.9,77.4,0,0,0,0,0,0,1011.4,1026
39,2023-01-02T00:38:00,0.5,西北西,1.3,西北西,2.7,76.2,0,0,0,0,0,0,1011.3,1025.9
40,2023-01-02T00:39:00,0.5,西北西,1.3,西北西,2.9,76.8,0,0,0,0,0,0,1011.3,1025.9
41,2023-01-02T00:40:00,0.5,西北西,1.3,西北西,2.9,76.6,0,0,0,0,0,0,1011.3,1025.9
42,2023-01-02T00:41:00,0.5,西,1.3,西北西,2.9,77.2,0,0,0,0,0,0,1011.3,1025.9
43,2023-01-02T00:42:00,0.5,西,1.2,西,2.8,76.8,0,0,0,0,0,0,1011.4,1026
44,2023-01-02T00:43:00,0.6,西,1.3,西,2.6,77,0,0,0,0,0,0,1011.4,1026
45,2023-01-02T00:44:00,0.6,西,1.3,西,2.6,77.5,0,0,0,0,0,0,1011.4,1026
46,2023-01-02T00:45:00,0.6,西北西,1.3,西,2.6,78.2,0,0,0,0,0,0,1011.3,1025.9
47,2023-01-02T00:46:00,0.7,西北西,1.8,西北西,2.5,78.7,0,0,0,0,0,0,1011.4,1026
48,2023-01-02T00:47:00,0.9,西北西,1.8,西北西,2.5,78.9,0,0,0,0,0,0,1011.4,1026
49,2023-01-02T00:48:00,1,西北西,1.8,西北西,2.5,79.1,0,0,0,0,0,0,1011.4,1026
50,2023-01-02T00:49:00,1.1,西北西,1.8,西北西,2.6,79.9,0,0,0,0,0,0,1011.4,1026
51,2023-01-02T00:50:00,1.2,西北西,2,西,2.5,79.9,0,0,0,0,0,0,1011.4,1026
52,2023-01-02T00:51:00,1.3,西北西,2,西,2.4,79.8,0,0,0,0,0,0,1011.3,1025.9
53,2023-01-02T00:52:00,1.3,西北西,2,西,2.3,79.9,0,0,0,0,0,0,1011.3,1025.9
54,2023-01-02T00:53:00,1.3,西北西,2,西,2.4,80.2,0,0,0,0,0,0,1011.4,1026
55,2023-01-02T00:54:00,1.3,西北西,2,西,2.4,80.7,0,0,0,0,0,0,1011.4,1026
56,2023-01-02T00:55:00,1.4,西北西,2,西,2.5,80.9,0,0,0,0,0,0,1011.4,1026
57,2023-01-02T00:56:00,1.4,西北西,2,西,2.5,81.1,0,0,0,0,0,0,1011.4,1026
58,2023-01-02T00:57:00,1.4,西北西,2,西,2.5,81.3,0,0,0,0,0,0,1011.4,1026
59,2023-01-02T00:58:00,1.3,西北西,2,西,2.4,81.2,0,0,0,0,0,0,1011.3,1025.9
60,2023-01-02T00:59:00,1.3,西北西,2,西,2.4,81,0,0,0,0,0,0,1011.4,1026
61,2023-01-02T01:00:00,1.2,西北西,2,西,2.5,80.9,0,0,0,0,0,0,1011.4,1026
62,2023-01-02T01:01:00,1.2,西北西,1.8,西北西,2.4,80.8,0,0,0,0,0,0,1011.4,1026
63,2023-01-02T01:02:00,1.2,西北西,1.8,西北西,2.5,80.7,0,0,0,0,0,0,1011.4,1026
64,2023-01-02T01:03:00,1.2,西北西,1.8,西北西,2.4,80.3,0,0,0,0,0,0,1011.4,1026
65,2023-01-02T01:04:00,1.2,西北西,1.8,西北西,2.4,80.2,0,0,0,0,0,0,1011.4,1026
66,2023-01-02T01:05:00,1.1,西,1.8,西北西,2.4,79.7,0,0,0,0,0,0,1011.4,1026
67,2023-01-02T01:06:00,1,西,1.6,西,2.4,79.9,0,0,0,0,0,0,1011.4,1026
68,2023-01-02T01:07:00,1,西,1.6,西,2.6,80.4,0,0,0,0,0,0,1011.4,1026
69,2023-01-02T01:08:00,1,西,1.6,西,2.6,80.4,0,0,0,0,0,0,1011.3,1025.9
70,2023-01-02T01:09:00,1,西南西,1.6,西,2.4,79.7,0,0,0,0,0,0,1011.3,1025.9
71,2023-01-02T01:10:00,1,西南西,1.6,西,2.4,79.7,0,0,0,0,0,0,1011.4,1026
72,2023-01-02T01:11:00,0.9,西南西,1.6,西,2.6,80.5,0,0,0,0,0,0,1011.5,1026.1
73,2023-01-02T01:12:00,0.8,南西,1.6,南南西,2.6,80.8,0,0,0,0,0,0,1011.5,1026.1
74,2023-01-02T01:13:00,0.8,西南西,1.6,南南西,2.7,80.8,0,0,0,0,0,0,1011.5,1026.1
75,2023-01-02T01:14:00,0.8,西南西,1.8,西,2.7,80.9,0,0,0,0,0,0,1011.4,1026
76,2023-01-02T01:15:00,0.9,西南西,1.8,西,2.6,80.5,0,0,0,0,0,0,1011.4,1026
77,2023-01-02T01:16:00,1,西南西,2.1,西,2.5,79.9,0,0,0,0,0,0,1011.4,1026
78,2023-01-02T01:17:00,1.1,西南西,2.1,西,2.4,79.6,0,0,0,0,0,0,1011.4,1026
79,2023-01-02T01:18:00,1,西,2.1,西,2.5,79.6,0,0,0,0,0,0,1011.4,1026
80,2023-01-02T01:19:00,0.9,西,2.1,西,2.6,80.2,0,0,0,0,0,0,1011.4,1026
81,2023-01-02T01:20:00,0.9,西,2.1,西,2.6,80.7,0,0,0,0,0,0,1011.4,1026
82,2023-01-02T01:21:00,0.8,西,2.1,西,2.5,80.1,0,0,0,0,0,0,1011.4,1026
83,2023-01-02T01:22:00,0.8,西,2.1,西,2.4,80.1,0,0,0,0,0,0,1011.5,1026.1
84,2023-01-02T01:23:00,0.8,西,2.1,西,2.5,80.6,0,0,0,0,0,0,1011.5,1026.1
85,2023-01-02T01:24:00,0.7,西,2.1,西,2.5,80.8,0,0,0,0,0,0,1011.5,1026.1
86,2023-01-02T01:25:00,0.6,西,2.1,西,2.6,81.2,0,0,0,0,0,0,1011.5,1026.1
87,2023-01-02T01:26:00,0.5,西南西,2,西北西,2.5,81,0,0,0,0,0,0,1011.5,1026.1
88,2023-01-02T01:27:00,0.4,西南西,1.1,西,2.6,81.4,0,0,0,0,0,0,1011.4,1026
89,2023-01-02T01:28:00,0.4,西南西,0.9,南南西,2.6,81.4,0,0,0,0,0,0,1011.5,1026.1
90,2023-01-02T01:29:00,0.4,西南西,0.9,南南西,2.6,81.2,0,0,0,0,0,0,1011.5,1026.1
91,2023-01-02T01:30:00,0.4,西南西,0.9,南南西,2.7,81.3,0,0,0,0,0,0,1011.5,1026.1
92,2023-01-02T01:31:00,0.5,西南西,1,西,2.8,81.8,0,0,0,0,0,0,1011.6,1026.2
93,2023-01-02T01:32:00,0.4,西南西,1,西,2.8,81.7,0,0,0,0,0,0,1011.6,1026.2
94,2023-01-02T01:33:00,0.4,西南西,1,西,2.8,81.7,0,0,0,0,0,0,1011.6,1026.2
95,2023-01-02T01:34:00,0.5,西,1.3,西,3,81.7,0,0,0,0,0,0,1011.6,1026.2
96,2023-01-02T01:35:00,0.5,西,1.3,西,3,81.2,0,0,0,0,0,0,1011.6,1026.2
97,2023-01-02T01:36:00,0.5,西,1.3,西,3,80.6,0,0,0,0,0,0,1011.6,1026.2
98,2023-01-02T01:37:00,0.5,西,1.3,西,2.8,79.3,0,0,0,0,0,0,1011.6,1026.2
99,2023-01-02T01:38:00,0.5,西,1.3,西,2.8,78.3,0,0,0,0,0,0,1011.6,1026.2
100,2023-01-02T01:39:00,0.6,西,1.3,西,2.8,78.5,0,0,0,0,0,0,1011.6,1026.2
101,2023-01-02T01:40:00,0.6,西南西,1.3,西,3,78.5,0,0,0,0,0,0,1011.6,1026.2
102,2023-01-02T01:41:00,0.6,西南西,1.3,西,2.8,78.7,0,0,0,0,0,0,1011.6,1026.2
103,2023-01-02T01:42:00,0.5,西南西,1.3,西,2.8,78.8,0,0,0,0,0,0,1011.7,1026.3
104,2023-01-02T01:43:00,0.5,西南西,1.3,西,2.8,79,0,0,0,0,0,0,1011.7,1026.3
105,2023-01-02T01:44:00,0.5,西南西,1.6,西,2.8,79.1,0,0,0,0,0,0,1011.7,1026.3
106,2023-01-02T01:45:00,0.4,西南西,1.6,西,2.8,79,0,0,0,0,0,0,1011.8,1026.4
107,2023-01-02T01:46:00,0.4,南西,1.6,西,2.8,78.9,0,0,0,0,0,0,1011.7,1026.3
108,2023-01-02T01:47:00,0.4,西南西,1.6,西,2.8,78.5,0,0,0,0,0,0,1011.7,1026.3
109,2023-01-02T01:48:00,0.4,西,1.6,西,2.9,78.8,0,0,0,0,0,0,1011.7,1026.3
110,2023-01-02T01:49:00,0.5,西北西,2.1,西北西,3.1,79.1,0,0,0,0,0,0,1011.7,1026.3
111,2023-01-02T01:50:00,0.6,北西,2.1,西北西,3.1,78.4,0,0,0,0,0,0,1011.7,1026.3
112,2023-01-02T01:51:00,0.6,北西,2.1,西北西,3,77.8,0,0,0,0,0,0,1011.7,1026.3
113,2023-01-02T01:52:00,0.6,北西,2.1,西北西,2.9,77.5,0,0,0,0,0,0,1011.8,1026.4
114,2023-01-02T01:53:00,0.5,西北西,2.1,西北西,2.9,77.2,0,0,0,0,0,0,1011.7,1026.3
115,2023-01-02T01:54:00,0.5,南西,2.1,西北西,2.9,77.2,0,0,0,0,0,0,1011.7,1026.3
116,2023-01-02T01:55:00,0.5,南西,2.1,西北西,3.1,77.3,0,0,0,0,0,0,1011.6,1026.2
117,2023-01-02T01:56:00,0.6,南西,2.1,西北西,3.3,78,0,0,0,0,0,0,1011.7,1026.3
118,2023-01-02T01:57:00,0.6,南西,2.1,西北西,3.1,77.7,0,0,0,0,0,0,1011.7,1026.3
119,2023-01-02T01:58:00,0.7,南西,2.1,西北西,2.9,77.4,0,0,0,0,0,0,1011.6,1026.2
120,2023-01-02T01:59:00,0.6,南南西,1.8,西,2.7,76.7,0,0,0,0,0,0,1011.5,1026.1
121,2023-01-02T02:00:00,0.6,南南西,2.3,南南西,2.5,77.1,0,0,0,0,0,0,1011.5,1026.1
122,2023-01-02T02:01:00,0.8,南南西,2.3,南南西,2.6,78.2,0,0,0,0,0,0,1011.4,1026
123,2023-01-02T02:02:00,0.9,南南西,2.3,南南西,2.7,79.2,0,0,0,0,0,0,1011.5,1026.1
124,2023-01-02T02:03:00,1,南南西,2.3,南南西,2.8,79.7,0,0,0,0,0,0,1011.4,1026
125,2023-01-02T02:04:00,1,南南西,2.3,南南西,2.8,80.2,0,0,0,0,0,0,1011.5,1026.1
126,2023-01-02T02:05:00,1,南南西,2.3,南南西,2.9,80.5,0,0,0,0,0,0,1011.4,1026
127,2023-01-02T02:06:00,1,南南西,2.3,南南西,2.8,80.4,0,0,0,0,0,0,1011.4,1026
128,2023-01-02T02:07:00,0.9,南西,2.3,南南西,2.9,80.8,0,0,0,0,0,0,1011.4,1026
129,2023-01-02T02:08:00,0.8,南西,2.3,南南西,2.8,80.7,0,0,0,0,0,0,1011.4,1026
130,2023-01-02T02:09:00,0.8,南西,2.3,南南西,2.8,80.5,0,0,0,0,0,0,1011.4,1026
131,2023-01-02T02:10:00,0.7,南西,2.2,南,2.7,80.2,0,0,0,0,0,0,1011.4,1026
132,2023-01-02T02:11:00,0.6,南西,1.7,南南西,2.7,80,0,0,0,0,0,0,1011.4,1026
133,2023-01-02T02:12:00,0.6,南西,1.6,南西,2.8,79.7,0,0,0,0,0,0,1011.3,1025.9
134,2023-01-02T02:13:00,0.6,南西,2,南,2.7,79.4,0,0,0,0,0,0,1011.3,1025.9
135,2023-01-02T02:14:00,0.8,南西,2.4,南南西,2.8,78.8,0,0,0,0,0,0,1011.3,1025.9
136,2023-01-02T02:15:00,0.9,南西,2.4,南南西,2.7,78.8,0,0,0,0,0,0,1011.3,1025.9
137,2023-01-02T02:16:00,1,南西,2.4,南南西,2.7,78.7,0,0,0,0,0,0,1011.4,1026
138,2023-01-02T02:17:00,1,南西,2.4,南南西,2.9,79.5,0,0,0,0,0,0,1011.4,1026
139,2023-01-02T02:18:00,1.1,南西,2.4,南南西,2.8,79.1,0,0,0,0,0,0,1011.4,1026
140,2023-01-02T02:19:00,1,南西,2.4,南南西,2.9,79.3,0,0,0,0,0,0,1011.4,1026
141,2023-01-02T02:20:00,1,南西,2.4,南南西,2.7,79.2,0,0,0,0,0,0,1011.4,1026
142,2023-01-02T02:21:00,1,南西,2.4,南南西,2.6,78.8,0,0,0,0,0,0,1011.4,1026
143,2023-01-02T02:22:00,0.9,南西,2.4,南南西,2.7,79.7,0,0,0,0,0,0,1011.4,1026
144,2023-01-02T02:23:00,0.9,南西,2.4,南南西,2.4,79.3,0,0,0,0,0,0,1011.4,1026
145,2023-01-02T02:24:00,0.8,西南西,2.3,南南西,2.3,78.9,0,0,0,0,0,0,1011.4,1026
146,2023-01-02T02:25:00,0.7,西南西,1.8,西,2.3,80,0,0,0,0,0,0,1011.5,1026.1
147,2023-01-02T02:26:00,0.6,西,1.8,西,2.5,81.2,0,0,0,0,0,0,1011.4,1026
148,2023-01-02T02:27:00,0.6,西,1.8,西,2.5,81.7,0,0,0,0,0,0,1011.5,1026.1
149,2023-01-02T02:28:00,0.6,西南西,1.8,西,2.5,81.9,0,0,0,0,0,0,1011.5,1026.1
150,2023-01-02T02:29:00,0.7,西南西,1.8,西,2.6,81.7,0,0,0,0,0,0,1011.5,1026.1
151,2023-01-02T02:30:00,0.7,西南西,1.8,西,2.6,81.5,0,0,0,0,0,0,1011.5,1026.1
152,2023-01-02T02:31:00,0.8,南西,1.8,西,2.6,81.3,0,0,0,0,0,0,1011.5,1026.1
153,2023-01-02T02:32:00,0.8,南西,1.8,西,2.5,80.7,0,0,0,0,0,0,1011.5,1026.1
154,2023-01-02T02:33:00,0.8,南南西,1.8,西,2.5,80.6,0,0,0,0,0,0,1011.6,1026.2
155,2023-01-02T02:34:00,0.8,南南西,1.7,南,2.5,80.7,0,0,0,0,0,0,1011.5,1026.1
156,2023-01-02T02:35:00,0.8,南南西,1.7,南,2.5,80.6,0,0,0,0,0,0,1011.5,1026.1
157,2023-01-02T02:36:00,0.8,南,1.7,南,2.5,81,0,0,0,0,0,0,1011.6,1026.2
158,2023-01-02T02:37:00,0.8,南南西,1.7,南,2.6,81,0,0,0,0,0,0,1011.5,1026.1
159,2023-01-02T02:38:00,0.9,南南西,1.7,南,2.6,81,0,0,0,0,0,0,1011.6,1026.2
160,2023-01-02T02:39:00,0.9,南南西,1.7,南,2.6,80.9,0,0,0,0,0,0,1011.6,1026.2
161,2023-01-02T02:40:00,0.9,南南西,1.7,南,2.6,80.7,0,0,0,0,0,0,1011.5,1026.1
162,2023-01-02T02:41:00,0.8,南,1.7,南,2.6,80.4,0,0,0,0,0,0,1011.5,1026.1
163,2023-01-02T02:42:00,0.8,南,1.7,南,2.6,80.3,0,0,0,0,0,0,1011.5,1026.1
164,2023-01-02T02:43:00,0.8,南南西,1.7,南,2.6,80.4,0,0,0,0,0,0,1011.6,1026.2
165,2023-01-02T02:44:00,0.6,南南西,1.5,南南西,2.9,80.9,0,0,0,0,0,0,1011.5,1026.1
166,2023-01-02T02:45:00,0.6,南,1.5,南南西,2.8,80.8,0,0,0,0,0,0,1011.5,1026.1
167,2023-01-02T02:46:00,0.5,南,1.5,南南西,2.6,79.9,0,0,0,0,0,0,1011.5,1026.1
168,2023-01-02T02:47:00,0.5,南,1.5,南南西,2.6,79.7,0,0,0,0,0,0,1011.4,1026
169,2023-01-02T02:48:00,0.4,南,1.4,南,2.7,79.9,0,0,0,0,0,0,1011.5,1026.1
170,2023-01-02T02:49:00,0.4,南,1.4,南,2.7,80.1,0,0,0,0,0,0,1011.5,1026.1
171,2023-01-02T02:50:00,0.4,南,1.4,南,2.8,80.7,0,0,0,0,0,0,1011.5,1026.1
172,2023-01-02T02:51:00,0.3,南,1.4,南,2.5,79.7,0,0,0,0,0,0,1011.4,1026
173,2023-01-02T02:52:00,0.3,南,1,南,2.6,79.9,0,0,0,0,0,0,1011.4,1026
174,2023-01-02T02:53:00,0.3,南南東,0.9,西南西,2.6,80.4,0,0,0,0,0,0,1011.4,1026
175,2023-01-02T02:54:00,0.3,南東,0.9,西南西,2.7,80.5,0,0,0,0,0,0,1011.5,1026.1
176,2023-01-02T02:55:00,0.3,南南東,0.9,西南西,2.9,81.2,0,0,0,0,0,0,1011.5,1026.1
177,2023-01-02T02:56:00,0.3,西南西,0.9,西南西,2.8,81.2,0,0,0,0,0,0,1011.5,1026.1
178,2023-01-02T02:57:00,0.3,西北西,0.9,西南西,2.7,80.8,0,0,0,0,0,0,1011.5,1026.1
179,2023-01-02T02:58:00,0.3,西,0.9,西南西,2.7,80.6,0,0,0,0,0,0,1011.4,1026
180,2023-01-02T02:59:00,0.3,西,0.9,西南西,2.8,80.9,0,0,0,0,0,0,1011.4,1026
181,2023-01-02T03:00:00,0.3,西南西,0.9,西南西,2.7,80.6,0,0,0,0,0,0,1011.4,1026
182,2023-01-02T03:01:00,0.3,南西,1,南南西,2.8,80.3,0,0,0,0,0,0,1011.4,1026
183,2023-01-02T03:02:00,0.4,南西,1.9,南,3.1,80.5,0,0,0,0,0,0,1011.4,1026
184,2023-01-02T03:03:00,0.5,南南西,1.9,南,3.2,80.2,0,0,0,0,0,0,1011.4,1026
185,2023-01-02T03:04:00,0.5,南南西,1.9,南,3.2,78.7,0,0,0,0,0,0,1011.4,1026
186,2023-01-02T03:05:00,0.6,南南西,1.9,南,3.6,78.5,0,0,0,0,0,0,1011.4,1026
187,2023-01-02T03:06:00,0.6,南南西,1.9,南,2.9,76.8,0,0,0,0,0,0,1011.4,1026
188,2023-01-02T03:07:00,0.8,南南西,2.1,西南西,2.7,75.9,0,0,0,0,0,0,1011.4,1026
189,2023-01-02T03:08:00,0.9,南南西,2.1,西南西,2.5,76.3,0,0,0,0,0,0,1011.4,1026
190,2023-01-02T03:09:00,1,南南西,2.1,西南西,2.8,78.1,0,0,0,0,0,0,1011.4,1026
191,2023-01-02T03:10:00,1.1,南西,2.1,西南西,3,79.2,0,0,0,0,0,0,1011.3,1025.9
192,2023-01-02T03:11:00,1.2,南西,2.1,西南西,3,79.4,0,0,0,0,0,0,1011.3,1025.9
193,2023-01-02T03:12:00,1.2,南西,2.1,西南西,3,78.4,0,0,0,0,0,0,1011.3,1025.9
194,2023-01-02T03:13:00,1.3,南西,2.7,西南西,2.9,78,0,0,0,0,0,0,1011.3,1025.9
195,2023-01-02T03:14:00,1.4,西南西,3,西北西,2.9,77.7,0,0,0,0,0,0,1011.3,1025.9
196,2023-01-02T03:15:00,1.6,西南西,3,西北西,2.7,77.6,0,0,0,0,0,0,1011.3,1025.9
197,2023-01-02T03:16:00,1.6,西南西,3,西北西,2.7,78,0,0,0,0,0,0,1011.3,1025.9
198,2023-01-02T03:17:00,1.6,西南西,3,西北西,2.8,78.9,0,0,0,0,0,0,1011.3,1025.9
199,2023-01-02T03:18:00,1.6,南西,3,西北西,2.8,79.3,0,0,0,0,0,0,1011.3,1025.9
200,2023-01-02T03:19:00,1.6,西南西,3,西北西,2.7,78.9,0,0,0,0,0,0,1011.4,1026
201,2023-01-02T03:20:00,1.6,西南西,3,西北西,2.7,78.9,0,0,0,0,0,0,1011.4,1026
202,2023-01-02T03:21:00,1.5,西南西,3,西北西,2.5,79,0,0,0,0,0,0,1011.3,1025.9
203,2023-01-02T03:22:00,1.5,西南西,3,西北西,2.5,79.2,0,0,0,0,0,0,1011.2,1025.8
204,2023-01-02T03:23:00,1.4,西南西,3,西北西,2.6,80,0,0,0,0,0,0,1011.2,1025.8
205,2023-01-02T03:24:00,1.3,西南西,2.8,西,2.8,80.7,0,0,0,0,0,0,1011.2,1025.8
206,2023-01-02T03:25:00,1.2,西南西,2.2,西,3,81.2,0,0,0,0,0,0,1011.2,1025.8
207,2023-01-02T03:26:00,1.1,南西,2.1,南西,3,80.8,0,0,0,0,0,0,1011.2,1025.8
208,2023-01-02T03:27:00,1,南西,2,南西,3,80,0,0,0,0,0,0,1011.1,1025.7
209,2023-01-02T03:28:00,1,南西,2.1,南,2.9,79.2,0,0,0,0,0,0,1011.1,1025.7
210,2023-01-02T03:29:00,1.1,南西,2.6,南,2.9,78.9,0,0,0,0,0,0,1011.1,1025.7
211,2023-01-02T03:30:00,1.2,南西,2.6,南,2.9,78.7,0,0,0,0,0,0,1011.1,1025.7
212,2023-01-02T03:31:00,1.2,南西,2.6,南,2.7,78.2,0,0,0,0,0,0,1011.1,1025.7
213,2023-01-02T03:32:00,1.3,南南西,2.6,南,2.7,78.2,0,0,0,0,0,0,1011.1,1025.7
214,2023-01-02T03:33:00,1.4,南南西,2.6,南,2.7,78.4,0,0,0,0,0,0,1011.1,1025.7
215,2023-01-02T03:34:00,1.5,南南西,2.6,南,2.6,78.8,0,0,0,0,0,0,1011,1025.6
216,2023-01-02T03:35:00,1.6,南南西,2.6,南,2.8,79.5,0,0,0,0,0,0,1010.9,1025.5
217,2023-01-02T03:36:00,1.7,南南西,2.6,南,2.7,79.6,0,0,0,0,0,0,1010.9,1025.5
218,2023-01-02T03:37:00,1.8,南南西,2.6,南,2.7,79.7,0,0,0,0,0,0,1010.9,1025.5
219,2023-01-02T03:38:00,1.8,南南西,2.6,南,2.7,79.9,0,0,0,0,0,0,1010.9,1025.5
220,2023-01-02T03:39:00,1.8,南南西,2.6,南南西,2.7,79.9,0,0,0,0,0,0,1010.8,1025.4
221,2023-01-02T03:40:00,1.7,南南西,2.6,南南西,2.6,79.8,0,0,0,0,0,0,1010.8,1025.4
222,2023-01-02T03:41:00,1.6,南南西,2.6,南南西,2.6,79.9,0,0,0,0,0,0,1010.8,1025.4
223,2023-01-02T03:42:00,1.5,南南西,2.6,南南西,2.6,80.2,0,0,0,0,0,0,1010.9,1025.5
224,2023-01-02T03:43:00,1.4,南南西,2.6,南南西,2.8,80.8,0,0,0,0,0,0,1010.9,1025.5
225,2023-01-02T03:44:00,1.3,南南西,2.6,南南西,2.8,81,0,0,0,0,0,0,1010.9,1025.5
226,2023-01-02T03:45:00,1.2,南南西,2.5,南南西,2.8,80.8,0,0,0,0,0,0,1010.9,1025.5
227,2023-01-02T03:46:00,1.1,南西,2.5,南南西,2.8,80.5,0,0,0,0,0,0,1010.9,1025.5
228,2023-01-02T03:47:00,0.9,北,2.1,南南西,2.7,80.4,0,0,0,0,0,0,1010.9,1025.5
229,2023-01-02T03:48:00,0.9,北,2,南南西,2.7,80,0,0,0,0,0,0,1010.9,1025.5
230,2023-01-02T03:49:00,0.7,北,2,南南西,2.5,79.8,0,0,0,0,0,0,1010.9,1025.5
231,2023-01-02T03:50:00,0.7,北,1.7,北東,2.3,79.4,0,0,0,0,0,0,1010.9,1025.5
232,2023-01-02T03:51:00,0.6,北,1.7,北東,2.4,79.8,0,0,0,0,0,0,1010.9,1025.5
233,2023-01-02T03:52:00,0.6,北北西,1.7,北東,2.4,80.8,0,0,0,0,0,0,1010.9,1025.5
234,2023-01-02T03:53:00,0.6,北北西,1.7,北東,2.6,81.5,0,0,0,0,0,0,1010.8,1025.4
235,2023-01-02T03:54:00,0.5,北北西,1.7,北東,2.7,81.7,0,0,0,0,0,0,1010.9,1025.5
236,2023-01-02T03:55:00,0.5,北北西,1.3,南西,2.7,81.5,0,0,0,0,0,0,1010.9,1025.5
237,2023-01-02T03:56:00,0.5,北西,1.3,南西,2.7,81.3,0,0,0,0,0,0,1010.8,1025.4
238,2023-01-02T03:57:00,0.5,西北西,1.3,南西,2.9,81.7,0,0,0,0,0,0,1010.8,1025.4
239,2023-01-02T03:58:00,0.5,西北西,1.3,南西,2.8,81.1,0,0,0,0,0,0,1010.7,1025.3
240,2023-01-02T03:59:00,0.5,西,1.3,南西,2.8,80.5,0,0,0,0,0,0,1010.7,1025.3
241,2023-01-02T04:00:00,0.5,西南西,1.2,南南東,2.8,80.4,0,0,0,0,0,0,1010.8,1025.4
242,2023-01-02T04:01:00,0.5,南西,1.2,南南東,2.7,79.7,0,0,0,0,0,0,1010.7,1025.3
243,2023-01-02T04:02:00,0.6,南西,1.6,南南西,2.8,79.5,0,0,0,0,0,0,1010.7,1025.3
244,2023-01-02T04:03:00,0.7,南西,1.9,南南西,2.8,79.5,0,0,0,0,0,0,1010.7,1025.3
245,2023-01-02T04:04:00,0.7,南西,1.9,南南西,2.8,79.3,0,0,0,0,0,0,1010.7,1025.3
246,2023-01-02T04:05:00,0.8,南西,1.9,南南西,2.5,78.3,0,0,0,0,0,0,1010.7,1025.3
247,2023-01-02T04:06:00,0.8,南西,1.9,南南西,2.5,78.6,0,0,0,0,0,0,1010.7,1025.3
248,2023-01-02T04:07:00,0.9,南西,1.9,南南西,2.7,79.7,0,0,0,0,0,0,1010.7,1025.3
249,2023-01-02T04:08:00,0.9,南西,1.9,南南西,2.7,80.1,0,0,0,0,0,0,1010.7,1025.3
250,2023-01-02T04:09:00,0.9,南西,1.9,南南西,2.7,80.1,0,0,0,0,0,0,1010.6,1025.2
251,2023-01-02T04:10:00,0.9,南西,1.9,南南西,2.8,79.9,0,0,0,0,0,0,1010.7,1025.3
252,2023-01-02T04:11:00,0.9,南西,1.9,南南西,2.8,79.5,0,0,0,0,0,0,1010.7,1025.3
253,2023-01-02T04:12:00,0.8,南西,1.9,南南西,2.9,79.5,0,0,0,0,0,0,1010.7,1025.3
254,2023-01-02T04:13:00,0.6,西南西,1.8,西,2.9,79.4,0,0,0,0,0,0,1010.7,1025.3
255,2023-01-02T04:14:00,0.6,西南西,1.8,西,3,79.1,0,0,0,0,0,0,1010.7,1025.3
256,2023-01-02T04:15:00,0.5,西,1.5,西南西,2.9,78.8,0,0,0,0,0,0,1010.6,1025.2
257,2023-01-02T04:16:00,0.4,西,1.3,南西,2.8,78.5,0,0,0,0,0,0,1010.7,1025.3
258,2023-01-02T04:17:00,0.4,北西,1.2,南,2.8,78.4,0,0,0,0,0,0,1010.7,1025.3
259,2023-01-02T04:18:00,0.4,北北西,1.2,南,2.9,78.8,0,0,0,0,0,0,1010.7,1025.3
260,2023-01-02T04:19:00,0.4,北,1.2,南,2.9,79,0,0,0,0,0,0,1010.7,1025.3
261,2023-01-02T04:20:00,0.3,北,0.8,東北東,2.9,79.1,0,0,0,0,0,0,1010.6,1025.2
262,2023-01-02T04:21:00,0.3,北,1.2,南,3,78.7,0,0,0,0,0,0,1010.6,1025.2
263,2023-01-02T04:22:00,0.4,北北東,1.5,南,3.2,78.8,0,0,0,0,0,0,1010.6,1025.2
264,2023-01-02T04:23:00,0.4,北北東,1.5,南,3.2,77.8,0,0,0,0,0,0,1010.7,1025.3
265,2023-01-02T04:24:00,0.5,北北東,1.5,南,2.9,77,0,0,0,0,0,0,1010.7,1025.3
266,2023-01-02T04:25:00,0.6,北北東,1.8,西北西,2.6,76,0,0,0,0,0,0,1010.6,1025.2
267,2023-01-02T04:26:00,0.7,西南西,2.2,西,2.5,76.5,0,0,0,0,0,0,1010.6,1025.2
268,2023-01-02T04:27:00,0.8,西南西,2.4,西北西,2.5,77.8,0,0,0,0,0,0,1010.7,1025.3
269,2023-01-02T04:28:00,1,西南西,3.1,西北西,2.5,78.9,0,0,0,0,0,0,1010.8,1025.4
270,2023-01-02T04:29:00,1.1,西南西,3.1,西北西,2.5,79.7,0,0,0,0,0,0,1010.7,1025.3
271,2023-01-02T04:30:00,1.2,西,3.1,西北西,2.6,80.6,0,0,0,0,0,0,1010.8,1025.4
272,2023-01-02T04:31:00,1.3,西,3.1,西北西,2.5,80.9,0,0,0,0,0,0,1010.7,1025.3
273,2023-01-02T04:32:00,1.3,西,3.1,西北西,2.6,81.4,0,0,0,0,0,0,1010.7,1025.3
274,2023-01-02T04:33:00,1.4,西,3.1,西北西,2.7,81.8,0,0,0,0,0,0,1010.6,1025.2
275,2023-01-02T04:34:00,1.4,西,3.1,西北西,2.6,81.7,0,0,0,0,0,0,1010.7,1025.3
276,2023-01-02T04:35:00,1.4,西北西,3.1,西北西,2.5,81.2,0,0,0,0,0,0,1010.7,1025.3
277,2023-01-02T04:36:00,1.3,西北西,3.1,西北西,2.6,81.2,0,0,0,0,0,0,1010.7,1025.3
278,2023-01-02T04:37:00,1.2,西北西,3.1,西北西,2.6,81.3,0,0,0,0,0,0,1010.7,1025.3
279,2023-01-02T04:38:00,1.1,西北西,2.1,西北西,2.6,81.6,0,0,0,0,0,0,1010.6,1025.2
280,2023-01-02T04:39:00,1.1,西北西,1.9,西,2.6,81.2,0,0,0,0,0,0,1010.6,1025.2
281,2023-01-02T04:40:00,1.1,西北西,1.9,西,2.6,81.5,0,0,0,0,0,0,1010.7,1025.3
282,2023-01-02T04:41:00,1.1,西北西,1.8,西北西,2.6,81.3,0,0,0,0,0,0,1010.7,1025.3
283,2023-01-02T04:42:00,1.1,西,2,西,2.6,81.3,0,0,0,0,0,0,1010.6,1025.2
284,2023-01-02T04:43:00,1.1,西,2,西,2.8,81.9,0,0,0,0,0,0,1010.6,1025.2
285,2023-01-02T04:44:00,1.1,西,2,西,2.8,81.7,0,0,0,0,0,0,1010.5,1025.1
286,2023-01-02T04:45:00,1.2,西,2,西,2.8,81.6,0,0,0,0,0,0,1010.6,1025.2
287,2023-01-02T04:46:00,1.2,西,2,西,2.8,81.1,0,0,0,0,0,0,1010.6,1025.2
288,2023-01-02T04:47:00,1.2,西,2,西,2.7,80.9,0,0,0,0,0,0,1010.6,1025.2
289,2023-01-02T04:48:00,1.2,西,2,西,2.8,80.8,0,0,0,0,0,0,1010.6,1025.2
290,2023-01-02T04:49:00,1.2,西,2,西,2.7,80.9,0,0,0,0,0,0,1010.6,1025.2
291,2023-01-02T04:50:00,1.3,西,2,西,2.6,80.7,0,0,0,0,0,0,1010.6,1025.2
292,2023-01-02T04:51:00,1.3,西北西,2,西,2.6,80.9,0,0,0,0,0,0,1010.7,1025.3
293,2023-01-02T04:52:00,1.3,西北西,1.8,西北西,2.7,81.2,0,0,0,0,0,0,1010.7,1025.3
294,2023-01-02T04:53:00,1.3,西北西,1.8,西北西,2.7,81.6,0,0,0,0,0,0,1010.6,1025.2
295,2023-01-02T04:54:00,1.2,西,1.8,西北西,2.6,81.7,0,0,0,0,0,0,1010.6,1025.2
296,2023-01-02T04:55:00,1.1,西,1.8,西北西,2.5,81.5,0,0,0,0,0,0,1010.7,1025.3
297,2023-01-02T04:56:00,1.1,西北西,1.8,西北西,2.4,81.4,0,0,0,0,0,0,1010.6,1025.2
298,2023-01-02T04:57:00,1.1,西北西,1.8,西北西,2.4,81.7,0,0,0,0,0,0,1010.7,1025.3
299,2023-01-02T04:58:00,1,西北西,1.8,西北西,2.5,82,0,0,0,0,0,0,1010.7,1025.3
300,2023-01-02T04:59:00,0.9,西北西,1.8,西北西,2.5,82.2,0,0,0,0,0,0,1010.7,1025.3
301,2023-01-02T05:00:00,0.8,西北西,1.8,西北西,2.5,82.2,0,0,0,0,0,0,1010.6,1025.2
302,2023-01-02T05:01:00,0.8,西北西,1.7,西北西,2.3,81.7,0,0,0,0,0,0,1010.7,1025.3
303,2023-01-02T05:02:00,0.7,西北西,1.5,西,2.4,82,0,0,0,0,0,0,1010.7,1025.3
304,2023-01-02T05:03:00,0.7,西北西,1.5,西,2.4,82.9,0,0,0,0,0,0,1010.8,1025.4
305,2023-01-02T05:04:00,0.7,西北西,1.5,西,2.4,82.9,0,0,0,0,0,0,1010.8,1025.4
306,2023-01-02T05:05:00,0.7,西北西,1.5,西,2.5,83.4,0,0,0,0,0,0,1010.8,1025.4
307,2023-01-02T05:06:00,0.7,西北西,1.5,西,2.5,83.4,0,0,0,0,0,0,1010.8,1025.4
308,2023-01-02T05:07:00,0.7,西北西,1.5,西,2.5,83.4,0,0,0,0,0,0,1010.7,1025.3
309,2023-01-02T05:08:00,0.8,西北西,1.5,西,2.4,83.3,0,0,0,0,0,0,1010.8,1025.4
310,2023-01-02T05:09:00,0.8,西北西,1.5,西,2.5,83.1,0,0,0,0,0,0,1010.8,1025.4
311,2023-01-02T05:10:00,0.8,西北西,1.5,西,2.5,83.2,0,0,0,0,0,0,1010.7,1025.3
312,2023-01-02T05:11:00,0.7,西北西,1.4,西,2.5,83.2,0,0,0,0,0,0,1010.7,1025.3
313,2023-01-02T05:12:00,0.7,西北西,1.4,西,2.4,83.1,0,0,0,0,0,0,1010.7,1025.3
314,2023-01-02T05:13:00,0.6,西北西,1.3,西,2.4,83.1,0,0,0,0,0,0,1010.8,1025.4
315,2023-01-02T05:14:00,0.5,北西,1.2,西北西,2.6,83.5,0,0,0,0,0,0,1010.8,1025.4
316,2023-01-02T05:15:00,0.5,北西,1.2,西北西,2.5,83.4,0,0,0,0,0,0,1010.8,1025.4
317,2023-01-02T05:16:00,0.5,北西,1.2,西北西,2.5,83.3,0,0,0,0,0,0,1010.7,1025.3
318,2023-01-02T05:17:00,0.5,北西,1.2,西北西,2.7,83.5,0,0,0,0,0,0,1010.7,1025.3
319,2023-01-02T05:18:00,0.5,北北西,1.2,北北東,2.7,83.3,0,0,0,0,0,0,1010.7,1025.3
320,2023-01-02T05:19:00,0.5,北北西,1.2,北北東,2.7,83.3,0,0,0,0,0,0,1010.8,1025.4
321,2023-01-02T05:20:00,0.4,北,1.2,北北東,2.8,83.1,0,0,0,0,0,0,1010.8,1025.4
322,2023-01-02T05:21:00,0.5,北,1.6,北北東,2.8,82.9,0,0,0,0,0,0,1010.8,1025.4
323,2023-01-02T05:22:00,0.6,北,1.7,北北東,2.8,82.7,0,0,0,0,0,0,1010.8,1025.4
324,2023-01-02T05:23:00,0.7,北北東,1.9,北北東,2.8,82.5,0,0,0,0,0,0,1010.8,1025.4
325,2023-01-02T05:24:00,0.8,北北東,1.9,北北東,2.8,82.6,0,0,0,0,0,0,1010.7,1025.3
326,2023-01-02T05:25:00,0.9,北北東,1.9,北北東,2.8,82.6,0,0,0,0,0,0,1010.8,1025.4
327,2023-01-02T05:26:00,1,北北東,1.9,北北東,2.7,82.3,0,0,0,0,0,0,1010.8,1025.4
328,2023-01-02T05:27:00,0.9,北北東,1.9,北北東,2.8,82.1,0,0,0,0,0,0,1010.8,1025.4
329,2023-01-02T05:28:00,0.9,北北東,1.9,北北東,2.8,82.3,0,0,0,0,0,0,1010.8,1025.4
330,2023-01-02T05:29:00,0.9,北北東,1.9,北北東,2.8,82.5,0,0,0,0,0,0,1010.9,1025.5
331,2023-01-02T05:30:00,1,北東,1.9,北北東,2.8,82.5,0,0,0,0,0,0,1010.9,1025.5
332,2023-01-02T05:31:00,0.9,北東,1.9,北北東,2.8,82.4,0,0,0,0,0,0,1010.9,1025.5